Theta_e
288 287 286 286 285 285 284 283 282 282 282 282 281 281 281 281 282 283 283 284 284 284 284 284 287 289 290 290 290 291 293 294 295 296 296 296 295 295 295 295 295 295 295
287 287 286 285 285 285 284 282 282 282 282 281 281 280 280 281 281 282 283 283 284 284 284 284 286 288 289 290 290 290 291 292 293 294 295 295 295 295 295 294 294 294 294
287 286 286 285 285 285 283 282 282 281 282 281 281 280 280 280 280 281 282 283 283 284 284 284 285 287 288 289 289 290 291 292 293 293 294 294 294 294 294 294 294 294 294
287 286 285 285 285 284 283 282 281 281 281 281 280 280 279 279 280 280 281 282 283 283 284 284 284 287 288 289 289 289 290 291 292 293 293 293 293 294 293 293 293 293 293
287 286 285 285 284 283 282 282 281 281 281 280 280 279 279 279 279 279 280 281 282 283 283 284 284 286 288 288 289 289 289 290 291 292 292 292 292 293 292 292 292 292 292
286 285 285 284 284 283 282 281 280 280 280 280 280 279 279 279 278 278 278 280 281 282 283 283 284 285 288 288 289 289 289 289 290 291 291 291 291 292 292 292 292 291 290
286 285 284 284 283 282 282 281 280 280 280 280 280 279 278 278 277 277 277 279 280 281 282 283 283 284 287 288 289 289 289 289 289 289 290 290 290 291 291 291 291 290 290
285 284 284 283 282 282 281 281 280 279 279 279 279 279 278 277 278 277 277 278 279 280 281 282 283 284 286 287 288 289 288 288 288 289 289 289 289 290 290 291 290 290 289
285 285 284 283 282 282 281 280 280 279 278 278 278 278 278 277 278 276 277 277 278 279 280 281 282 283 285 286 288 289 288 288 288 288 288 289 289 289 289 290 289 289 288
285 284 283 282 282 281 280 280 279 279 278 277 277 277 277 277 278 276 275 277 278 279 280 281 282 283 284 286 287 288 288 288 288 288 288 288 289 288 288 289 289 289 289
285 284 283 282 281 281 280 279 279 278 277 277 277 276 277 277 278 275 275 276 276 278 280 281 282 283 284 286 287 287 287 288 288 288 288 288 288 288 288 289 289 289 289
284 284 282 281 281 280 279 279 278 278 277 277 276 277 276 277 277 275 276 274 275 278 279 280 282 283 283 285 286 287 287 288 287 287 288 288 288 288 288 288 288 289 289
284 283 282 281 280 280 279 278 278 278 277 278 277 276 276 276 277 276 276 276 278 278 279 280 281 282 283 284 285 286 287 288 287 287 286 287 286 287 288 288 288 289 289
284 283 281 280 280 279 278 278 278 277 277 278 277 276 275 276 274 276 277 277 277 278 278 279 280 282 282 283 284 285 285 286 286 285 285 286 286 287 288 287 286 286 288
283 283 281 280 279 279 278 278 277 277 277 278 277 277 276 275 274 273 275 276 276 277 278 279 280 282 282 283 283 283 284 285 285 285 285 285 286 287 287 286 285 285 286
283 282 281 280 279 278 277 278 277 277 277 277 276 276 275 274 273 274 275 276 276 276 277 279 280 281 282 282 282 283 283 283 284 285 285 285 285 286 286 286 285 285 286
284 282 281 280 279 278 278 277 277 276 276 276 276 276 275 274 274 274 274 274 275 275 277 277 278 280 281 282 282 282 282 282 283 284 284 285 285 285 286 287 286 285 285
283 282 281 280 279 278 277 277 277 276 276 276 276 275 275 275 274 274 274 274 275 275 276 276 277 278 280 281 281 282 282 282 282 283 284 284 285 285 285 286 287 286 285
282 281 280 279 278 277 277 277 276 276 275 275 275 275 275 275 274 274 274 274 274 275 274 275 275 276 278 279 280 281 282 282 282 282 283 284 284 285 285 285 287 288 287
281 280 279 278 277 277 277 276 276 275 275 275 275 275 275 275 274 274 274 274 274 274 274 274 274 275 276 277 279 280 281 281 282 282 282 283 284 284 285 285 286 287 288
281 280 278 278 278 277 277 276 276 275 275 275 274 274 274 274 275 274 274 273 273 274 274 273 274 274 275 276 276 278 280 281 282 282 282 282 283 284 284 285 285 287 286
281 280 279 278 277 277 276 276 276 275 275 275 275 274 274 274 275 275 274 273 273 273 274 274 274 274 274 275 275 276 278 279 281 282 282 282 282 283 284 285 286 286 287
281 280 279 278 277 276 276 276 276 276 275 275 275 275 274 274 274 275 275 274 273 273 273 273 273 273 274 274 275 275 276 277 279 281 282 282 282 282 284 284 285 286 287
281 279 279 278 277 276 276 277 276 276 275 275 275 274 274 274 274 274 275 274 274 273 273 273 273 273 273 274 274 275 275 276 277 279 281 282 282 282 282 283 284 285 285
280 279 278 278 277 277 277 276 276 276 275 275 275 274 274 274 274 274 274 274 274 274 274 273 273 273 274 274 274 274 274 275 276 276 278 280 281 282 282 282 283 284 285
280 279 278 278 277 277 277 276 276 276 275 275 274 274 274 274 273 274 274 274 274 274 274 274 273 273 273 274 274 274 274 274 275 276 276 278 280 281 282 282 282 284 284
Wind_Speed
6 6 7 9 13 18 21 20 21 22 21 20 18 15 13 12 13 14 15 16 17 19 22 24 25 27 31 31 26 19 10 6 6 7 4 3 2 2 4 4 4 4 3
6 5 5 8 12 17 18 19 20 21 20 19 18 15 13 12 14 14 14 14 16 18 21 22 24 25 28 31 29 24 14 7 7 8 7 6 5 5 3 3 3 3 3
6 5 3 6 10 15 17 18 20 20 20 19 18 15 13 13 14 16 15 13 14 16 18 21 23 24 26 32 30 27 20 10 5 5 5 4 7 8 7 6 5 5 5
7 5 2 4 9 13 15 17 19 20 20 20 18 15 12 13 16 19 16 13 13 14 15 17 20 22 24 30 32 28 24 16 8 4 3 4 4 8 9 8 9 8 8
8 6 2 3 8 12 14 16 19 20 20 20 18 14 11 12 19 20 17 13 13 14 14 15 18 17 18 21 26 27 23 19 11 6 4 2 1 4 8 9 10 9 9
11 8 5 1 7 9 12 16 17 17 18 18 17 14 11 12 17 20 17 13 11 13 13 14 15 17 15 20 23 23 20 20 15 10 8 5 3 2 4 7 9 10 9
13 11 7 1 4 7 10 13 14 15 17 18 18 17 13 12 18 18 17 14 12 12 13 13 14 16 15 19 20 20 20 17 14 11 9 7 5 3 3 6 8 9 8
16 13 9 4 3 4 8 10 12 14 15 17 18 18 17 15 18 20 20 15 11 10 11 12 14 15 14 17 19 20 20 20 17 13 9 7 6 3 2 3 7 9 11
18 15 11 7 4 3 6 8 10 13 14 16 17 17 18 17 18 22 22 17 10 9 8 9 11 12 14 17 16 18 18 19 16 12 9 8 6 4 5 5 6 10 13
21 18 14 10 6 3 4 6 8 10 13 15 16 17 18 18 18 22 23 19 13 10 5 5 8 9 12 14 15 15 16 17 17 14 11 10 8 5 2 2 3 5 10
23 20 17 13 9 5 4 5 7 10 11 12 15 16 18 20 19 23 24 20 18 14 6 4 6 7 10 12 13 13 14 14 14 14 12 11 11 8 7 5 4 6 6
25 23 19 15 12 8 5 4 5 8 9 11 13 15 18 20 22 25 25 20 18 14 6 5 6 9 10 10 12 12 10 11 13 15 15 13 13 13 12 9 8 8 6
29 26 22 18 15 11 7 5 3 4 6 9 13 15 18 20 24 26 26 21 18 13 8 7 8 9 9 9 11 11 10 10 15 17 18 16 13 12 12 11 11 11 8
31 28 25 21 17 13 9 6 3 2 4 7 11 14 17 20 25 26 27 23 17 11 9 7 7 8 9 9 8 10 13 14 15 17 17 14 11 11 12 11 14 14 13
32 29 27 23 19 15 12 8 4 1 3 7 10 13 16 19 20 21 27 26 18 13 11 7 5 5 7 8 11 12 12 12 14 16 17 17 15 13 13 15 14 14 18
35 32 28 24 21 17 13 9 5 2 3 5 8 11 12 13 15 20 24 26 19 12 7 6 7 9 10 11 12 14 14 15 17 16 16 18 17 15 12 12 13 14 17
33 31 29 25 21 18 14 10 6 3 2 3 4 7 9 11 13 17 21 23 19 12 7 7 8 8 10 11 11 12 16 18 15 16 16 17 17 17 11 10 11 11 13
33 29 27 25 22 19 15 12 8 5 3 0 2 4 6 8 11 12 16 16 17 14 11 8 7 7 7 9 9 10 11 14 16 14 16 16 17 17 16 10 10 9 9
35 31 27 25 22 18 16 13 9 7 5 3 1 2 3 6 8 11 12 14 17 18 15 12 8 6 5 6 7 8 9 10 14 15 14 16 17 16 16 15 10 8 9
34 31 29 27 24 21 18 14 11 10 9 6 3 1 3 2 4 6 8 11 14 15 16 16 12 8 5 4 4 4 6 7 9 11 15 13 16 16 15 16 13 11 9
36 35 32 28 25 21 18 15 13 12 10 8 6 4 3 3 2 2 5 7 8 10 11 13 14 13 9 5 2 2 3 4 7 8 11 13 13 15 15 14 13 11 11
36 35 33 30 26 24 21 18 15 13 11 11 10 9 5 4 3 1 2 4 6 6 8 10 11 11 12 10 6 2 1 2 4 5 6 9 12 13 14 13 12 12 11
36 35 33 30 27 24 22 20 17 15 13 12 12 12 10 7 6 4 3 3 4 6 6 6 9 10 10 11 11 7 3 0 1 2 3 5 9 12 12 13 12 11 10
35 34 32 30 29 27 24 20 17 17 15 14 13 13 13 10 9 7 6 5 4 4 5 5 4 6 8 9 10 11 8 4 1 1 1 1 4 8 10 10 11 10 9
34 34 33 31 29 26 23 21 19 18 17 15 15 14 15 13 12 10 9 8 6 5 5 5 5 4 5 6 7 8 9 8 4 2 2 2 1 2 6 8 9 10 7
34 33 31 29 27 25 23 21 20 19 18 17 17 17 16 15 14 12 11 10 9 7 7 7 6 6 5 4 4 5 7 8 7 3 2 4 4 3 1 4 7 8 8
Wind_Direction
275 312 334 349 354 358 348 352 1 5 4 4 1 358 348 346 341 342 352 356 2 7 11 15 16 12 8 13 13 8 344 335 307 309 344 1 259 232 212 221 236 236 236
267 301 329 353 357 358 348 358 5 8 6 8 8 3 356 353 347 345 347 353 359 3 8 11 15 13 7 14 13 12 4 343 321 314 313 302 260 244 214 205 204 206 213
247 273 313 357 360 358 355 5 10 11 8 11 11 8 4 0 354 351 345 344 356 4 9 10 9 8 11 13 10 11 10 354 330 312 299 294 238 230 221 206 216 216 225
226 238 285 352 3 1 2 10 14 14 14 13 15 14 12 4 8 354 349 344 351 357 10 12 11 9 12 10 4 8 12 11 8 352 309 280 251 229 226 224 221 220 228
212 214 214 346 11 3 7 16 18 17 18 18 15 15 17 13 21 356 353 353 356 352 2 12 12 19 13 9 6 7 12 21 27 34 20 314 262 220 216 212 213 217 211
202 201 196 312 27 11 14 22 20 18 22 21 20 19 18 15 20 1 358 351 352 353 354 7 9 15 17 15 6 13 17 21 30 48 63 68 74 150 198 197 191 184 168
197 194 186 176 50 23 25 29 19 20 24 25 24 22 20 10 17 1 0 350 346 349 349 354 6 13 21 20 6 14 23 29 33 39 57 61 66 101 171 175 185 183 192
192 189 185 174 97 41 41 32 25 24 24 26 26 23 16 17 20 10 0 352 345 346 347 351 358 6 21 25 6 17 22 25 27 30 37 46 53 66 160 189 197 200 160
190 189 184 174 143 86 57 44 31 27 25 23 24 22 19 14 11 15 355 357 352 351 348 348 358 2 25 28 12 14 22 26 31 34 42 55 48 64 109 141 146 176 165
189 187 184 178 164 129 82 59 40 34 29 26 21 19 20 17 9 13 3 2 357 355 8 357 5 10 27 30 25 18 20 25 32 38 53 67 69 77 113 146 158 182 170
185 187 186 179 175 159 122 74 47 35 30 24 24 18 18 18 17 13 8 4 360 357 15 31 22 38 38 31 28 26 28 28 27 38 47 61 66 58 65 81 107 149 158
187 188 186 182 180 172 155 105 64 43 26 21 22 22 19 18 24 16 11 8 0 7 36 52 58 57 46 40 32 28 33 35 37 41 44 51 62 56 43 53 71 87 112
188 188 187 184 184 178 167 140 90 51 31 25 22 19 21 17 22 20 16 17 12 27 66 68 68 62 48 44 46 35 29 33 44 40 39 43 49 52 44 68 74 80 103
189 189 188 186 187 182 175 165 135 79 34 31 32 25 16 18 20 14 20 23 26 41 64 70 67 60 50 46 50 52 45 41 47 48 41 43 52 57 58 70 80 85 97
190 189 188 187 189 188 184 175 163 122 47 35 31 27 17 18 21 13 19 20 25 35 49 55 74 84 67 54 43 46 50 46 52 55 47 47 54 57 67 75 81 95 102
190 190 190 190 190 190 190 182 179 171 58 36 29 24 22 20 14 13 20 20 20 32 29 71 79 79 76 66 57 52 51 54 49 50 56 52 51 58 68 87 89 91 100
196 192 190 191 193 194 190 189 196 193 131 59 23 25 18 14 14 13 17 21 19 18 28 60 64 71 79 76 67 56 48 49 49 47 51 56 59 58 65 81 97 98 97
195 196 194 194 193 192 192 193 196 208 222 52 29 16 16 15 12 15 18 19 25 31 38 47 62 69 72 74 77 68 55 50 48 48 48 53 58 64 61 76 90 103 102
192 192 193 195 196 194 198 196 198 214 238 248 271 324 18 17 9 6 10 15 30 35 36 38 45 55 64 74 68 71 63 52 49 41 48 47 55 59 63 60 74 100 96
194 193 194 195 196 197 201 201 202 212 229 232 244 287 310 344 5 356 357 10 25 31 35 34 37 42 45 62 82 71 75 67 58 46 44 45 49 53 57 65 69 87 98
194 193 196 197 200 201 203 205 208 214 228 243 247 245 241 265 283 335 347 3 9 24 29 37 35 34 36 37 43 86 71 76 60 51 41 38 49 52 50 56 61 75 87
196 196 197 198 199 203 205 210 214 217 225 237 251 255 257 240 243 245 310 334 350 360 21 23 31 37 40 38 33 23 69 68 73 56 45 38 43 48 46 48 64 69 85
197 198 200 200 202 205 208 215 220 225 230 236 244 254 257 257 251 241 244 271 310 331 346 11 13 17 29 35 37 30 14 332 92 97 60 38 42 47 43 41 49 71 86
199 201 202 203 204 208 213 219 224 232 237 243 245 249 253 252 253 244 244 243 256 285 305 329 349 1 3 22 31 30 25 21 281 226 122 61 38 45 40 39 39 57 77
200 203 204 206 209 213 216 221 227 236 243 245 247 248 252 253 249 246 244 244 239 250 273 285 306 321 342 351 6 23 26 26 15 251 212 183 196 42 42 40 39 39 60
203 205 207 209 213 217 221 226 231 238 244 248 248 249 249 251 252 249 247 246 243 242 253 267 273 284 295 309 332 350 11 25 22 0 239 210 206 203 47 35 38 35 41